Location: Saint-Hippolyte
(43.6394°N, 4.7559°E)
Time: 16:08:52
(UTC+00:00)

YAOGAN 1 - Pass Details

Date: 24 October 2020
Orbit: 618 x 620 km, 97.9° (Epoch: 23 November)

Event Time Altitude Azimuth Distance (km) Brightness Sun altitude
Rises 19:00:49 0° 190° (S) 2,883 6.0 -25.6°
Reaches altitude 10° 19:03:11 10° 200° (SSW) 1,982 5.3 -26.0°
Maximum altitude 19:07:03 32° 264° (W) 1,079 4.3 -26.7°
Drops below altitude 10° 19:10:56 10° 327° (NNW) 1,996 5.7 -27.4°
Sets 19:13:20 0° 338° (NNW) 2,907 6.4 -27.8°
